Regional Weather Roundup
Issued by NWS Wakefield, VA

Home | Current Version | Previous Version | Text Only | Print | Product List | Glossary On
Versions: 1 2 3 4 5 6 7 8 9 10 11 12 13 14 15 16 17 18 19 20 21 22 23 24 25 26 27 28 29 30 31 32 33 34 35 36 37 38 39 40 41 42 43 44 45 46 47 48 49 50
000
ASUS41 KAKQ 131115
RWRAKQ

REGIONAL WEATHER ROUNDUP
NATIONAL WEATHER SERVICE WAKEFIELD VA
600 AM EST SAT FEB 13 2016

Note: "fair" indicates few or no clouds below 12,000 feet with no
significant weather and/or obstructions to visibility. * = Denotes
station may not report precipitation (e.g., rain,snow,etc.),
thunder or fog.

VAZ042-051-052>054-056-131200-
NORTHERN VIRGINIA

CITY           SKY/WX    TMP DP  RH WIND       PRES   REMARKS
WASH NATIONAL  FLURRIES  23   6  48 NW24G32   30.13R WCI   7
DULLES         MOCLDY    20   4  50 W13G25    30.13R WCI   7
FORT BELVOIR   FAIR      22   2  41 NW23G32   30.13R WCI   6
QUANTICO       FAIR      23   2  40 NW10G26   30.16R WCI  12
FREDERICKSBRG* FAIR      23   6  47 NW10G22   30.15R WCI  12
STAFFORD*      FAIR      21   0  40 NW12G20   30.19R WCI   9
WARRENTON      FAIR      22   5  49 NW17G25   30.14R WCI   7
CULPEPER*      FAIR      21   1  42 NW13G23   30.17R WCI   8
MANASSAS*      FAIR      21   5  49 W16G23    30.15R WCI   7
LEESBURG*      MOCLDY    23  10  58 NW20G30   30.12R WCI   8
WINCHESTER     FAIR      19   7  58 NW15      30.11R WCI   5
FRONT ROYAL*   FAIR      19   0  42 NW14G25   30.11R WCI   6
LURAY*         FAIR      18   0  45 NW18G26   30.13R WCI   2
$$

VAZ048-049-060>072-079>083-131200-
CENTRAL AND SOUTH CENTRAL VIRGINIA

CITY           SKY/WX    TMP DP  RH WIND       PRES   REMARKS
RICHMOND       FAIR      25  10  53 NW20G28   30.14R WCI  11
CHESTERFIELD*  CLOUDY    27   0  31 NW16G24   30.14R WCI  14
PETERSBURG*    CLOUDY    29   7  39 N13G23    30.14R WCI  19
HANOVER        FAIR      24   5  44 NW15G28   30.15R WCI  11
TAPPAHANNOCK*  FAIR      25   7  47 NW14G25   30.13R WCI  13
QUINTON*       FAIR      25  15  65 NW10G20   30.13R WCI  15
CHARLOTTSVILLE FAIR      21  -6  30 NW14G23   30.14R WCI   8
GORDONSVILLE*  FAIR      21  -3  34 NW3       30.15R
ORANGE*        MOCLDY    23   0  36 CALM      30.17R
LOUISA*        FAIR      21   0  39 NW12      30.13R WCI   9
BUMPASS*       FAIR      22  -4  31 NW7G18    30.14R
FARMVILLE*     FAIR      26  -3  29 W8        30.15R
CREWE*         FAIR      26   1  33 NW16G26   30.13R WCI  14
FORT PICKETT*  CLOUDY    28   2  33 NW17G23   30.12R WCI  15
CHASE CITY*    FAIR      26   1  34 NW10G22   30.15R WCI  16
CLARKSVILLE*   FAIR      28   7  40 NW12G20   30.15R WCI  18
SOUTH HILL*    MOCLDY    28   7  40 NW10G22   30.18R WCI  19
LAWRENCEVILLE* FAIR      28  11  49 NW7       30.12R
EMPORIA*       FAIR      30  12  47 W8        30.13R
$$

VAZ088>098-131200-
SOUTHEAST VIRGINIA

CITY           SKY/WX    TMP DP  RH WIND       PRES   REMARKS
NORFOLK        FAIR      28  19  69 VRB3      30.08R
VIRGINIA BEACH FAIR      25  19  78 SW9       30.07R
NORFOLK NAVAL  FAIR      27  18  69 NW9       30.10R
WEST POINT*    FAIR      26  17  70 NW8       30.14R
SALUDA*        CLOUDY    26  20  77 NW17G28   30.11R WCI  13
NEWPORT NEWS   MOCLDY    23  19  85 N5        30.11R
LANGLEY AFB    FAIR      23  19  85 NW8       30.09R
FORT EUSTIS    CLOUDY    28  23  80 NW8       30.09R
WILLIAMSBURG*  MOCLDY    27  23  86 NW10G20   30.12R WCI  17
HR EXEC AP*    FAIR      19  16  86 NW3       30.11R
FRANKLIN*      CLOUDY    20  18  91 CALM      30.12R
US460-WAKEFLD  MOCLDY    20  17  88 CALM      30.12R
$$

VAZ020-022-025-037-045-131200-
WEST CENTRAL AND SOUTHWEST VIRGINIA

CITY           SKY/WX    TMP DP  RH WIND       PRES   REMARKS
STAUNTON*      FAIR      20  -4  34 NW18G28   30.14R WCI   5
WAYNESBORO*    CLOUDY    16  -6  36 NW9G20    30.11R
HOT SPRINGS VA CLOUDY     6  -2  70 NW15G30   29.86R WCI -12
LYNCHBURG      FAIR      20  -2  38 NW9       30.16R
DANVILLE       MOCLDY    27   8  44 N17G23    30.18R WCI  14
SOUTH BOSTON*  FAIR      26   1  33 NW16G30   30.17R WCI  14
MARTINSVILLE   FAIR      22   3  43 NW25G33   30.19R WCI   5
ROANOKE        FAIR      19  -1  41 NW18G30   30.17R WCI   4
BLACKSBURG     CLOUDY    16   4  61 W12G22    30.13R WCI   2
DUBLIN*        LGT SNOW  17  10  76 NW21G37   30.12R WCI   0
MARION*        LGT SNOW  16   2  53 W28G44    30.12R WCI  -3
HILLSVILLE*    CLOUDY    16   6  65 NW26G35   30.02R WCI  -4
RICHLANDS*     CLOUDY    13   4  66 NW10G21   30.16R WCI   0
WISE*          LGT SNOW  16   9  73 NW8       30.20R
ABINGDON*      FAIR      19   4  51 NW13G24   30.22R WCI   7
$$

MDZ021>025-VAZ099-100-131200-
SOUTHERN MARYLAND AND THE DELMARVA PENINSULA

CITY           SKY/WX    TMP DP  RH WIND       PRES   REMARKS
PATUXENT RIVER CLEAR     24   4  42 NW23G37   30.09R WCI   9
BAY BRIDGE APT   N/A     25  10  54 NW17G26   30.10R WCI  11
LEONARDTOWN    CLEAR     23   3  42 W15G23    30.13R WCI  10
DOVER          PTCLDY    23  10  58 W16G23    30.02R WCI  10
GEORGETOWN     LGT SNOW  22  15  75 NW12G21   30.05R WCI  10
EASTON         CLOUDY   N/A N/A N/A NW20G26   30.11R
CAMBRIDGE      PTCLDY    23  10  58 NW22G32   30.08R WCI   8
SALISBURY      CLOUDY    26  15  63 W10G20    30.04R WCI  16
OCEAN CITY     CLOUDY    23  15  71 NW10G17   30.04R WCI  12
WALLOPS ISLAND CLOUDY    26  15  63 NW18G25   30.06R WCI  13
ACCOMACK*      LGT SNOW  25  21  86 NW17G30   30.08R VSB 1   WCI  11
$$

NCZ012>017-030>032-131200-
NORTH CENTRAL AND EASTERN NORTH CAROLINA

CITY           SKY/WX    TMP DP  RH WIND       PRES   REMARKS
ROANOKE RAPIDS FAIR      30  14  51 NW6       30.12R
RALEIGH        PTCLDY    32   9  38 NW7       30.15R
ELIZABETH CITY PTCLDY    21  19  92 W5        30.10R
AHOSKIE*       NOT AVBL
EDENTON*       PTCLDY    27  25  92 N5        30.11R
CURRITUCK*     NOT AVBL
KILL DEVIL HLS NOT AVBL
MANTEO         NOT AVBL
CAPE HATTERAS  CLEAR     33  26  75 NW9G17    30.08R
TARBORO*       FAIR      30  20  66 NW9       30.14R
GOLDSBORO      CLEAR     28  28 100 NW3       30.12R
WASHINGTON     CLEAR     26  23  89 CALM      30.11R
GREENVILLE     CLEAR     28  27  93 NW3       30.13R
NEW BERN       CLEAR     29  26  89 NW7       30.13R
WILMINGTON     CLEAR     29  26  89 CALM      30.13R FOG
$$

VAZ048-131200-
ELSEWHERE

CITY           SKY/WX    TMP DP  RH WIND       PRES   REMARKS
HARRISBURG PA  PTCLDY    18   3  52 NW18G29   30.06R WCI   2
BALTIMORE      PTCLDY    21   5  50 NW14      30.08R WCI   8
ANNAPOLIS      CLEAR     23   9  55 W10G24    30.09R WCI  12
ANDREWS AFB    FAIR      21  11  65 NW14      30.09R WCI   8
PHILADELPHIA   PTCLDY    22   8  55 W18G26    30.01R WCI   7
HENDERSON NC   PTCLDY    30   9  42 NW17G25   30.13R WCI  18
GREENSBORO     PTCLDY    28   4  35 NW12G22   30.14R WCI  18
ROCKY MOUNT    CLEAR     28  19  69 NW6       30.13R
$$

VAZ100-131200-
MARINE

STATION/POSITION TIME  TEMP    WIND        PRES    WAVE   SWELL
                       AIR SEA DIR/SP/G            HT/PER HT/PER
                 (UTC) (F)     (DEG/KT/KT) (MB)    (FT/S) (FT/S)
BRANDYWINE LGT   1000   26     310/ 21/ 27 1015.4R
CAPE MAY NJ      1000   27 37  300/ 18/ 26 1015.0R
LEWES DE         1000   23 38  260/  6/  9 1015.8R
15NM E FENWICK I 1050   29 42              1015.7R   4/ 4
OCEAN-CITY-INLET 1000   24 40  310/  6/  8 1015.5R
WACHAPREAGUE VA  1000   28 34  300/  2/  7 1017.0R
THOMAS POINT MD  1100   24 36  310/ 24/ 31 1019.2R
GOOSES REEF MD   1100   25 37  320/ 19/ 23 1020.0R   3/ 4
COVE POINT MD    1000   26     330/ 15/ 23 1018.1R
SOLOMONS ISLAND  1000   26 39  290/ 13/ 19   N/A
BISHOPS HEAD MD  1000   28 31  300/ 26/ 28 1016.6R
PINEY POINT MD   1000          330/ 30/ 34   N/A
POTOMAC MD       1100   27 39  320/ 27/ 35 1017.9R   4/ 4
CAMBRIDGE MD     1000   28 36  300/ 17/ 23 1016.1R
LEWISETTA VA     1000   26 37  340/ 18/ 24 1018.3R
RAPPAHANNOCK LGT 1000          300/ 14/ 17 1017.4R
STINGRAY PT      1100   28 39  330/ 21/ 27 1019.1R   2/ 2
YORK RVR RNG VA  1000   28     320/  9/ 10 1017.0R
YORKTOWN VA      1000   29 40  320/  9/ 10 1017.6R
JAMESTOWN VA     1100   26 40  330/ 12/ 17   N/A
DOMINION TERM VA 1000   30     330/  3/  4 1017.9R
KIPTOPEKE VA     1000      39  360/ 10/ 14   N/A
CHES BAY BRIDGE  1000   31 40  310/ 14/ 16 1017.2R
CAPE HENRY VA    1000   31     330/ 15/ 18   N/A
CHESAPEAKE LGHT  1000   31     350/ 17/ 19 1017.7R
WILLOUBY STN VA  1000   29     330/  8/ 10 1018.5R
CAPE HENRY BUOY  1028      42                N/A     3/ 3
1ST LANDING BUOY 1100      41                N/A     2/ 3
CAPE CHARLES BUO 1026      42                N/A     2/ 3   2/13
OFFSHORE WE BUOY 1021      44                N/A     4/ 4   2/ 8
64NM E OF VA BCH 1050   35 48  330/ 19/ 27 1016.3R   5/ 6
DUCK PIER NC     1000   29     320/ 12/ 14 1016.9R
44100 DUCK FRF   1024      45                N/A     3/ 4
44056 DUCK FRF   1011      42                N/A     2/ 3
OREGON INLET NC  1000   30 40  310/ 11/ 15 1017.4R
HATTERAS NC      1000   35 45  320/ 20/ 25 1017.1R
DIAMOND SHLS NC  1050   39 71  340/ 21/ 25 1017.9R   6/ 8   3/ 8
$$



USA.gov is the U.S. government's official web portal to all federal, state and local government web resources and services.